Regional Weather Roundup
Issued by NWS

Home | Current Version | Previous Version | Text Only | Print | Product List | Glossary Off
Versions: 1 2 3 4 5 6 7 8 9 10 11 12 13 14 15 16 17 18 19 20 21 22 23 24 25 26 27 28 29 30 31 32 33 34 35 36 37 38 39 40 41 42 43 44 45 46 47 48 49 50

000
ASUS45 KABQ 291310
RWRNM
NEW MEXICO REGIONAL WEATHER ROUNDUP
NATIONAL WEATHER SERVICE ALBUQUERQUE NM
700 AM MDT FRI JUL 29 2016

NOTE: "FAIR" MEANS FEW OR NO CLOUDS BELOW 12,000 FEET AGL WITH NO
       SIGNIFICANT WEATHER OR OBSTRUCTIONS TO VISION.

      THIS PRODUCT IS RELEASED AS TWO VERSIONS.  ONE VERSION NEAR
      THE TOP OF THE HOUR CONTAINING PRELIMINARY DATA FROM ALBUQUERQUE
      AND OTHER STATIONS.  A FINAL VERSION WITH ADDITIONAL DATA IS
      ISSUED ABOUT 10 MINUTES AFTER THE HOUR.

NMZ501-503-504-510>518-291400-
NORTHWEST PLATEAU/NORTHCENTRAL MOUNTAINS

CITY           SKY/WX    TMP DP  RH WIND       PRES   REMARKS
FARMINGTON     FAIR      68  38  33 E7        30.14R
LOS ALAMOS     FAIR      68  43  39 SW6       30.33S
SANTA FE       NOT AVBL
TAOS           FAIR      57  34  41 CALM      30.33R
ANGEL FIRE     FAIR      43  42  94 CALM      30.44R

$$
NMZ402-403-502-505>509-291400-
WESTCENTRAL MOUNTAINS/SOUTHWEST MOUNTAINS

CITY           SKY/WX    TMP DP  RH WIND       PRES   REMARKS
GALLUP         FAIR      57  39  51 S3        30.25R
GRANTS         FAIR      58  45  62 S3        30.29R
SILVER CITY    FAIR      65  55  70 N6        30.20S

$$
NMZ407-409-411-412-291400-
SOUTHERN DESERTS

CITY           SKY/WX    TMP DP  RH WIND       PRES   REMARKS
LORDSBURG      FAIR      73  52  46 S9        30.10R
DEMING         FAIR      72  52  49 NE5       30.11R
LAS CRUCES     FAIR      69  51  54 CALM      30.13S
HOLLOMAN AFB   FAIR      68  53  58 N6        30.10S
ALAMOGORDO     FAIR      73  54  49 N5        30.13R
T OR C         FAIR      72  55  55 NW6       30.15R

$$
NMZ519>523-291400-
CENTRAL VALLEYS/CENTRAL HIGHLANDS

CITY           SKY/WX    TMP DP  RH WIND       PRES   REMARKS
ALBUQUERQUE    FAIR      70  49  47 SE9       30.19S
DOUBLE EAGLE   PTCLDY    61  45  55 S3        30.23R
MORIARTY ARPT  FAIR      58  52  81 CALM      30.28S
CLINES CORNERS FAIR      62  48  60 W9        30.33S
BELEN          FAIR      72  46  40 CALM      30.18S
SOCORRO        FAIR      69  51  51 S7        30.15F

$$
NMZ524>526-539-540-291400-
SOUTHCENTRAL MOUNTAINS

CITY           SKY/WX    TMP DP  RH WIND       PRES   REMARKS
RUIDOSO          N/A     63  48  59 SW7       30.33S

$$
NMZ527>531-291400-
NORTHEAST HIGHLANDS/NORTHEAST PLAINS

CITY           SKY/WX    TMP DP  RH WIND       PRES   REMARKS
LAS VEGAS      FAIR      61  53  75 S8        30.29F
RATON          FAIR      59  49  69 SE3       30.27F
CLAYTON        FAIR      64  59  83 SW6       30.19F

$$
NMZ532>537-291400-
EASTCENTRAL PLAINS

CITY           SKY/WX    TMP DP  RH WIND       PRES   REMARKS
TUCUMCARI      FAIR      72  59  63 SW5       30.14S
CANNON AFB     FAIR      70  61  74 N8        30.17S
CLOVIS AIRPORT FAIR      72  57  60 NE12      30.18S

$$
NMZ028-029-538-291400-
SOUTHEAST PLAINS

CITY           SKY/WX    TMP DP  RH WIND       PRES   REMARKS
ROSWELL        FAIR      70  57  63 SW6       30.08R
ARTESIA        FAIR      72  63  73 S6        30.08S
CARLSBAD       FAIR      70  63  78 S5        30.06R
HOBBS          SUNNY     68  68 100 CALM      30.12R


$$




USA.gov is the U.S. government's official web portal to all federal, state and local government web resources and services.